Weather History for Fitchburg, MA

Change the Weather History Date:

Saturday, August 3, 2013

  Actual Average (KORH) Record (KORH)
Temperature  
Mean Temperature 71 °F 70 °F  
Max Temperature 80 °F 79 °F 94 °F (1930)
Min Temperature 62 °F 62 °F 45 °F (1940)
Degree Days  
Heating Degree Days 0 0  
Month to date heating degree days 0  
Since 1 June heating degree days 97  
Since 1 July heating degree days 14  
Cooling Degree Days 6 6  
Month to date cooling degree days 18  
Year to date cooling degree days 299  
Since 1 June cooling degree days 277  
Growing Degree Days 21 (Base 50)    
Moisture  
Dew Point 59 °F    
Average Humidity 70    
Maximum Humidity 90    
Minimum Humidity 48    
Precipitation  
Precipitation 0.00 in 0.13 in 1.52 in (1996)
Month to date precipitation 0.40  
Year to date precipitation 28.05  
Sea Level Pressure  
Sea Level Pressure 29.83 in    
Wind  
Wind Speed 4 mph (WSW)    
Max Wind Speed 13 mph    
Max Gust Speed 21 mph    
Visibility 10 miles    
Events      
T = Trace of Precipitation, MM = Missing Value Source: NWS Daily Summary

Daily Weather History Graph

Daily Weather History Graph

Search for Another Location

Airport:

Trip Planner

Search our weather history database for the weather conditions in past years. The results will help you decide how hot, cold, wet, or windy it might be!

Date:

Astronomy

Aug. 03, 2013 Rise Set
Actual Time 5:41 AM EDT 8:04 PM EDT
Civil Twilight 5:09 AM EDT 8:35 PM EDT
Nautical Twilight 4:30 AM EDT 9:15 PM EDT
Astronomical Twilight 3:46 AM EDT 9:58 PM EDT
Moon 2:47 AM EDT (8/3) 5:45 PM EDT (8/3)
Length of Visible Light 15h 26m
Length of Day
14h 23m
Waning Crescent, 9% of the Moon is Illuminated
Aug 3
Waning Crescent
Aug 6
New
Aug 14
First Quarter
Aug 20
Full
Aug 28
Last Quarter

Hourly Weather History & Observations

Time (EDT) Temp. Dew Point Humidity Pressure Visibility Wind Dir Wind Speed Gust Speed Precip Events Conditions
12:52 AM 64.9 °F 62.1 °F 90% 29.88 in 10.0 mi Calm Calm - N/A   Mostly Cloudy
1:52 AM 66.0 °F 61.0 °F 84% 29.86 in 10.0 mi NW 4.6 mph - N/A   Overcast
2:52 AM 64.9 °F 61.0 °F 87% 29.85 in 10.0 mi Calm Calm - N/A   Clear
3:52 AM 64.9 °F 60.1 °F 84% 29.83 in 10.0 mi West 3.5 mph - N/A   Clear
4:52 AM 63.0 °F 60.1 °F 90% 29.83 in 10.0 mi Calm Calm - N/A   Clear
5:52 AM 63.0 °F 60.1 °F 90% 29.84 in 10.0 mi Calm Calm - N/A   Clear
6:52 AM 64.0 °F 61.0 °F 90% 29.84 in 10.0 mi Calm Calm - N/A   Partly Cloudy
7:52 AM 68.0 °F 61.0 °F 78% 29.84 in 10.0 mi SW 3.5 mph - N/A   Clear
8:52 AM 70.0 °F 60.1 °F 71% 29.85 in 10.0 mi WSW 9.2 mph - N/A   Clear
9:52 AM 71.1 °F 60.1 °F 68% 29.84 in 10.0 mi West 10.4 mph - N/A   Clear
10:52 AM 73.0 °F 60.1 °F 64% 29.84 in 10.0 mi West 9.2 mph - N/A   Clear
11:52 AM 75.0 °F 60.1 °F 60% 29.83 in 10.0 mi West 9.2 mph 18.4 mph N/A   Partly Cloudy
12:52 PM 75.9 °F 60.1 °F 58% 29.83 in 10.0 mi SW 11.5 mph - N/A   Scattered Clouds
1:52 PM 78.1 °F 57.9 °F 50% 29.82 in 10.0 mi West 12.7 mph 20.7 mph N/A   Partly Cloudy
2:52 PM 79.0 °F 57.9 °F 48% 29.82 in 10.0 mi West 8.1 mph - N/A   Clear
3:52 PM 77.0 °F 57.9 °F 52% 29.81 in 10.0 mi West 6.9 mph - N/A   Mostly Cloudy
4:52 PM 79.0 °F 57.9 °F 48% 29.79 in 10.0 mi WSW 10.4 mph 16.1 mph N/A   Clear
5:52 PM 79.0 °F 59.0 °F 50% 29.80 in 10.0 mi SW 8.1 mph - N/A   Clear
6:52 PM 77.0 °F 59.0 °F 54% 29.80 in 10.0 mi WSW 4.6 mph - N/A   Partly Cloudy
7:52 PM 73.0 °F 59.0 °F 61% 29.81 in 10.0 mi SW 3.5 mph - N/A   Clear
8:52 PM 68.0 °F 57.9 °F 70% 29.84 in 10.0 mi Calm Calm - N/A   Clear
9:52 PM 64.0 °F 57.9 °F 80% 29.86 in 10.0 mi Calm Calm - N/A   Clear
10:52 PM 63.0 °F 57.0 °F 81% 29.86 in 10.0 mi Calm Calm - N/A   Clear
11:52 PM 62.1 °F 55.0 °F 78% 29.86 in 10.0 mi North 4.6 mph - N/A   Clear